Location: Bamobli
(6.6379°N, 10.9396°W)
Time: 14:44:37
(UTC+00:00)

BLOCK DM-SL R/B - Pass Details

Date: 07 June 2020
Orbit: 344 x 41014 km, 0.8° (Epoch: 04 July)

Event Time Altitude Azimuth Distance (km) Brightness Sun altitude
Exits shadow 04:34:40 36° 159° (SSE) 1,214 3.9 -26.1°
Drops below altitude 10° 04:43:57 10° 101° (E) 5,329 7.9 -24.1°
Sets 04:55:25 0° 95° (E) 10,087 9.6 -21.6°
